#timestamp,LO_Frequency,Hit,StdDev 
1618111615.2,286047007.2,P
1618111635.0,286047004.8,P
1618111635.9,286047004.8,P
1618111655.7,286047004.7,Y
1618111675.6,286046999.0,P
1618111695.4,286047000.2,N
1618111715.3,286047002.1,N
1618111735.1,286047002.5,N
1618111736.0,286047002.5,N
1618111755.8,286047001.5,N
1618111775.7,286047002.2,N
1618111795.5,286047002.2,N
1618111815.3,286047003.6,N
1618111835.2,286047006.7,Y
1618111855.0,286047001.5,P
1618111855.9,286047001.5,P
1618111875.8,286047003.6,P
1618111895.6,286047004.0,Y
1618111915.4,286047000.0,P
1618111935.3,286047000.6,N
1618111955.1,286047001.2,N
1618111975.9,286047001.2,N
1618111995.7,286047000.9,N
1618112015.5,286047000.6,N
1618112035.4,286047000.9,N
1618112055.2,286046998.6,N
1618112075.0,286047002.3,N
1618112075.9,286047002.3,N
1618112095.8,286047001.9,N
1618112115.6,286046999.7,N
1618112135.5,286047000.4,N
1618112155.3,286047002.5,N
1618112175.1,286047002.1,N
1618112195.9,286047004.4,Y
1618112215.7,286047001.5,P
1618112235.5,286047001.9,P
1618112255.4,286047002.8,P
1618112275.2,286047002.8,Y
1618112295.1,286047001.1,P
1618112296.0,286047001.1,N
1618112315.8,286047001.1,P
1618112335.6,286046999.7,N
1618112355.5,286047000.2,N
1618112375.3,286047000.3,N
1618112395.2,286047000.5,N
1618112415.9,286046998.3,N
1618112435.7,286046998.1,N
1618112455.6,286046998.1,N
1618112475.4,286046999.0,N
1618112495.2,286047000.7,N
1618112515.1,286046997.1,N
1618112516.0,286046997.1,N
1618112535.8,286046997.7,N
1618112555.7,286046996.5,N
1618112575.5,286046999.0,N
1618112595.3,286046999.6,N
1618112615.2,286046996.7,N
1618112635.0,286046999.1,N
1618112665.9,286046998.6,E
1618112675.9,286047000.1,N
1618112695.7,286047001.3,P
1618112715.5,286047001.8,N
1618112735.4,286047001.5,N
1618112755.2,286047002.6,Y
1618112775.1,286047001.0,P
1618112776.0,286047001.0,P
1618112795.8,286047000.1,N
1618112815.6,286047000.9,N
1618112835.5,286047000.9,N
1618112855.3,286046999.7,N
1618112875.1,286046999.7,N
1618112895.9,286047000.2,N
1618112915.7,286047000.1,N
1618112935.6,286046999.8,N
1618112955.4,286047000.7,N
1618112975.2,286047001.0,N
1618112995.1,286047000.7,N
1618112996.0,286047000.7,N
1618113015.8,286046998.2,Y
1618113035.7,286046996.8,P
1618113055.5,286046999.6,N
1618113075.3,286046999.5,N
1618113095.2,286046996.5,N
1618113115.0,286046998.3,N
1618113115.9,286046998.3,N
1618113135.8,286046998.5,N
1618113155.6,286047002.2,N
1618113175.4,286047002.3,N
1618113195.3,286047002.0,N
1618113215.1,286047002.5,N
1618113235.8,286047000.2,N
1618113255.7,286047000.0,N
1618113275.5,286047000.2,N
1618113295.4,286047001.0,N
1618113315.2,286046999.8,N
1618113335.0,286047000.0,N
1618113335.9,286047000.0,N
1618113355.8,286047000.8,N
1618113375.6,286047001.2,N
1618113395.5,286046998.6,N
1618113415.3,286047000.1,N
1618113435.1,286047000.3,N
1618113455.9,286047000.8,N
1618113475.7,286047000.8,N
1618113495.5,286046999.8,N
1618113515.4,286047002.8,N
1618113535.2,286047002.3,N
1618113555.1,286047001.9,N
1618113556.0,286047001.9,N
1618113575.8,286047001.5,N
1618113595.6,286047001.4,N
